Temp
57 53 50 56 60 62 61 58 56 62 65 66 65 67 70 72 72 74 76 75 78 80 83 81 78 78 77 77 77 77 77 77 78 79 80 81 83 84 84 84 81 81 80 78
51 49 58 58 61 59 58 56 56 61 66 67 63 65 68 71 74 76 76 76 78 79 81 81 78 76 76 76 76 75 76 76 77 79 78 81 81 81 77 75 73 75 75 76
50 54 58 58 57 56 56 56 56 58 63 64 63 60 63 68 72 75 76 78 78 79 81 82 79 77 76 76 75 75 75 75 76 76 77 77 78 75 72 74 73 73 75 75
52 57 55 55 54 58 52 61 60 59 58 53 63 52 59 65 66 70 74 75 78 79 80 81 80 78 76 76 76 76 75 76 76 77 77 75 75 70 71 73 73 74 73 73
50 52 53 52 56 59 55 61 61 61 59 57 56 54 62 63 65 68 71 74 77 79 81 81 81 78 76 76 76 75 74 74 74 74 74 73 70 72 73 74 72 70 71 72
55 62 59 58 60 61 64 59 59 58 57 48 56 55 58 61 65 69 74 76 75 77 79 79 76 75 74 76 75 74 73 72 73 73 72 71 69 70 73 72 73 73 73 73
52 54 59 62 56 62 61 55 46 44 45 45 55 53 60 65 67 72 74 73 73 76 79 77 74 74 73 73 74 74 73 71 72 72 72 72 70 70 69 71 72 72 73 73
46 42 55 61 59 55 57 56 49 37 40 46 52 50 59 69 67 68 69 71 72 74 78 77 76 75 74 73 74 74 72 71 72 72 72 72 71 75 74 72 73 73 73 73
48 47 61 62 63 63 56 52 60 50 49 49 53 56 61 64 65 67 68 68 69 72 74 75 75 74 74 73 72 73 73 72 73 72 72 71 71 71 71 69 70 72 70 73
55 45 58 61 64 62 60 64 50 53 41 39 48 50 56 59 63 67 68 69 68 70 72 73 73 73 74 74 72 73 74 73 73 73 73 72 71 71 70 70 69 68 68 68
58 54 52 59 57 56 57 55 56 56 54 44 43 50 62 63 63 63 66 68 68 69 72 72 73 73 73 73 73 71 72 72 71 71 70 69 70 69 69 69 68 67 67 67
60 56 48 54 61 67 64 59 58 49 47 51 50 53 61 62 62 62 64 67 67 70 71 72 70 69 68 71 73 71 70 71 71 70 69 68 68 68 67 65 65 65 64 64
60 52 45 49 56 60 59 59 61 57 54 49 46 53 59 61 60 62 62 65 66 67 68 69 70 70 72 72 72 72 71 71 71 70 70 67 65 65 63 62 62 62 62 62
61 51 52 47 53 57 53 56 59 59 49 52 53 57 56 58 58 59 60 62 65 65 66 67 67 69 70 70 70 69 69 70 69 68 66 63 61 60 60 60 59 59 59 59
60 52 53 53 54 56 57 58 57 57 59 53 59 57 61 59 58 58 60 62 62 59 63 64 66 66 67 67 67 67 66 66 65 63 62 59 59 59 58 58 57 57 57 57
55 49 53 50 55 57 54 56 59 59 57 57 57 56 63 62 61 59 59 59 56 58 59 60 61 61 61 60 61 60 60 60 61 59 58 58 57 58 56 55 55 54 54 54
56 52 51 47 52 56 50 55 58 57 58 60 57 58 59 57 56 55 55 57 54 54 55 54 53 53 54 55 56 56 56 57 57 57 56 56 55 55 54 53 52 52 50 50
53 52 50 46 50 41 54 58 61 58 54 56 56 58 58 52 49 51 56 54 52 52 50 52 52 52 52 54 54 54 54 54 54 54 54 53 53 52 52 50 50 48 49 48
55 53 44 44 46 49 53 55 56 58 52 54 53 53 52 52 52 46 52 53 50 49 47 44 45 46 49 49 50 52 52 51 51 50 50 50 49 48 48 47 46 47 46 46
54 54 51 44 43 41 56 59 63 61 53 56 56 54 54 58 51 46 49 51 50 50 50 50 50 50 49 48 48 49 48 47 46 46 47 47 47 46 45 45 45 46 46 45
47 48 48 45 45 49 56 59 62 50 54 58 58 58 58 56 58 49 50 48 49 49 49 50 49 47 45 46 46 45 45 43 43 44 45 45 45 43 44 44 45 45 44 41
47 45 45 44 43 43 56 58 55 56 56 57 57 56 50 49 49 49 49 48 48 47 47 48 47 45 45 45 44 43 42 42 43 42 41 41 41 42 43 42 43 44 41 42
45 52 47 48 48 49 52 54 56 59 54 54 53 52 51 48 47 48 47 46 45 45 45 46 45 44 43 43 42 40 40 40 37 38 39 40 40 41 41 41 40 40 41 41
50 51 47 48 47 48 50 54 56 58 55 54 53 52 52 47 47 45 45 44 44 43 42 44 43 41 40 41 41 39 38 37 37 38 39 40 39 39 40 41 41 39 39 38
52 52 45 42 46 49 49 52 53 52 53 52 53 53 50 49 47 46 44 43 43 43 42 42 41 40 39 40 40 39 38 36 36 38 37 36 38 39 38 39 39 38 40 39
51 48 48 46 51 53 47 51 53 51 50 50 49 48 49 49 45 45 43 43 43 42 43 41 39 39 38 38 37 37 37 36 35 34 35 36 36 38 39 38 37 40 39 38
MSLP
1008.81 1008.35 1006.89 1006.64 1006.60 1006.51 1006.40 1006.89 1007.02 1007.34 1007.49 1007.23 1007.16 1007.22 1006.97 1007.25 1007.50 1007.68 1007.32 1007.61 1008.00 1007.95 1007.96 1008.57 1009.14 1009.70 1010.15 1010.76 1011.43 1011.95 1012.32 1012.79 1013.09 1013.28 1013.44 1013.42 1013.35 1013.56 1013.75 1013.69 1013.72 1013.86 1013.92 1013.96
1008.77 1007.83 1007.73 1008.03 1007.63 1007.16 1007.08 1007.04 1007.18 1007.52 1007.45 1007.24 1007.43 1007.34 1007.45 1007.14 1007.22 1007.30 1007.33 1007.78 1007.96 1008.11 1007.98 1008.30 1008.92 1009.57 1010.22 1010.96 1011.51 1011.97 1012.36 1012.83 1013.11 1013.37 1013.63 1013.61 1013.69 1013.96 1014.52 1014.65 1014.73 1014.55 1014.31 1013.90
1007.61 1007.79 1008.15 1007.80 1007.60 1007.23 1007.17 1006.69 1007.03 1007.06 1007.33 1007.59 1007.60 1007.69 1007.65 1007.59 1007.40 1007.40 1007.61 1007.67 1007.85 1007.66 1007.69 1008.00 1008.87 1009.53 1010.23 1010.95 1011.63 1012.06 1012.43 1012.85 1013.15 1013.37 1013.46 1013.78 1014.09 1014.67 1015.02 1015.09 1015.41 1015.08 1014.53 1014.07
1007.77 1007.75 1007.75 1007.77 1007.62 1007.35 1007.04 1007.08 1007.06 1007.38 1007.24 1007.03 1007.56 1006.95 1007.40 1007.48 1007.57 1007.47 1007.40 1007.61 1007.64 1007.36 1007.49 1007.91 1008.50 1009.26 1010.15 1010.79 1011.32 1011.81 1012.20 1012.52 1012.81 1013.01 1013.17 1013.37 1013.92 1014.95 1015.47 1015.51 1015.53 1015.08 1014.28 1014.62
1007.09 1007.14 1007.16 1007.06 1007.07 1007.54 1007.33 1007.29 1007.00 1007.26 1007.47 1007.67 1007.64 1007.41 1006.35 1007.21 1006.83 1006.85 1007.21 1007.37 1007.55 1007.56 1007.68 1007.87 1008.41 1009.31 1010.10 1010.79 1011.28 1011.79 1012.21 1012.56 1012.88 1013.10 1013.31 1013.63 1014.32 1015.01 1015.16 1015.07 1014.85 1014.91 1015.29 1015.40
1006.59 1006.73 1006.96 1006.69 1007.35 1007.57 1007.27 1007.31 1007.45 1007.73 1007.66 1007.56 1007.22 1007.17 1006.12 1006.19 1006.25 1006.52 1006.58 1006.86 1007.35 1007.60 1007.82 1008.28 1009.04 1009.71 1010.23 1010.88 1011.46 1012.05 1012.46 1012.94 1013.29 1013.29 1013.61 1013.88 1014.19 1014.65 1014.77 1014.94 1015.10 1015.31 1015.45 1015.44
1006.27 1006.55 1006.52 1006.51 1007.00 1007.24 1007.16 1007.05 1007.06 1007.56 1007.44 1007.05 1007.74 1007.33 1006.02 1006.20 1006.41 1006.39 1006.37 1006.90 1007.19 1007.33 1007.54 1008.14 1008.96 1009.70 1010.32 1010.78 1011.40 1012.10 1012.58 1013.11 1013.34 1013.51 1013.85 1014.12 1014.31 1014.71 1014.88 1015.05 1015.25 1015.33 1015.45 1015.46
1005.21 1005.96 1005.79 1005.99 1005.88 1005.96 1006.56 1006.48 1005.95 1006.06 1006.56 1007.07 1008.05 1006.62 1006.17 1006.24 1006.76 1006.94 1007.07 1007.01 1007.22 1007.26 1007.31 1007.74 1008.54 1009.63 1010.39 1010.83 1011.44 1012.07 1012.62 1013.13 1013.50 1013.74 1014.11 1014.45 1014.59 1014.75 1015.07 1015.35 1015.51 1015.63 1015.65 1015.67
1004.44 1004.69 1005.23 1005.38 1005.64 1005.85 1006.19 1006.38 1006.51 1006.56 1007.22 1006.89 1006.98 1006.95 1006.82 1006.81 1006.70 1006.83 1006.86 1006.98 1006.96 1007.17 1007.23 1007.68 1008.59 1009.59 1010.34 1010.86 1011.64 1011.97 1012.49 1013.08 1013.42 1013.83 1014.32 1014.67 1014.94 1015.16 1015.34 1015.77 1015.99 1015.91 1016.02 1015.85
1003.92 1004.35 1004.82 1005.08 1005.53 1005.88 1005.53 1006.00 1006.48 1006.57 1006.42 1006.52 1006.78 1006.61 1005.90 1006.47 1006.53 1006.65 1006.46 1006.64 1006.84 1007.05 1007.44 1007.86 1008.88 1009.79 1010.57 1011.17 1011.87 1012.45 1012.90 1013.23 1013.75 1014.34 1014.82 1015.06 1015.29 1015.62 1015.87 1016.02 1016.09 1016.18 1016.16 1016.05
1003.79 1003.70 1004.65 1004.88 1004.54 1004.72 1005.35 1005.64 1006.00 1006.25 1006.44 1006.17 1006.22 1006.09 1005.86 1006.03 1006.61 1006.88 1006.84 1006.67 1006.74 1006.96 1007.47 1008.31 1009.08 1010.11 1010.89 1011.63 1012.12 1012.67 1013.36 1013.76 1014.32 1014.87 1015.37 1015.60 1015.78 1015.98 1016.08 1016.07 1016.30 1016.36 1016.24 1016.25
1003.83 1003.88 1004.16 1004.23 1004.62 1004.49 1004.73 1004.96 1005.34 1005.70 1006.30 1006.59 1006.48 1006.05 1006.36 1006.71 1007.11 1007.44 1007.31 1007.09 1007.24 1007.46 1007.89 1008.77 1009.68 1010.71 1011.27 1011.71 1012.30 1013.11 1013.85 1014.33 1014.92 1015.44 1015.79 1016.19 1016.43 1016.43 1016.44 1016.39 1016.60 1016.70 1016.73 1016.68
1003.66 1004.05 1004.09 1004.73 1005.02 1004.97 1004.54 1004.81 1004.78 1005.46 1006.09 1005.96 1006.15 1006.05 1006.70 1007.13 1007.55 1007.81 1007.79 1007.71 1007.94 1008.36 1008.97 1009.36 1009.88 1010.53 1011.47 1012.18 1012.96 1013.56 1014.27 1014.95 1015.28 1015.84 1016.08 1016.55 1016.77 1016.87 1017.02 1016.93 1017.10 1017.13 1017.06 1016.97
1003.48 1003.99 1003.70 1003.67 1003.65 1003.95 1004.22 1004.43 1004.56 1004.77 1005.27 1005.31 1005.49 1005.76 1006.62 1007.18 1007.78 1008.33 1008.49 1008.51 1008.64 1009.11 1009.62 1010.13 1010.72 1011.62 1012.37 1013.04 1013.54 1014.28 1015.12 1015.50 1015.81 1016.35 1016.57 1017.06 1017.41 1017.70 1017.72 1017.54 1017.53 1017.60 1017.58 1017.31
1003.84 1004.01 1004.30 1004.31 1004.07 1003.91 1003.70 1003.68 1004.25 1004.47 1004.56 1005.12 1004.97 1005.63 1006.13 1007.45 1008.36 1008.93 1009.11 1009.38 1009.82 1010.37 1010.73 1011.41 1011.92 1012.61 1013.45 1014.00 1014.56 1015.22 1015.84 1016.15 1016.47 1016.86 1017.36 1017.91 1018.25 1018.41 1018.31 1018.01 1017.94 1017.90 1017.79 1017.46
1004.47 1004.69 1004.66 1004.86 1004.50 1004.08 1003.89 1004.09 1004.34 1004.64 1005.04 1005.35 1005.57 1006.32 1007.08 1008.40 1009.37 1009.76 1010.10 1010.54 1011.42 1011.80 1012.60 1013.08 1013.72 1014.37 1015.10 1015.76 1016.18 1016.60 1016.96 1017.23 1017.59 1017.76 1018.14 1018.63 1018.88 1018.82 1018.66 1018.36 1018.35 1018.24 1017.87 1017.55
1004.55 1004.75 1004.98 1005.19 1005.17 1004.58 1004.51 1004.41 1004.39 1004.77 1005.21 1005.51 1005.86 1006.66 1008.02 1009.44 1010.62 1011.37 1011.92 1012.07 1013.17 1013.73 1014.43 1015.21 1015.85 1016.62 1017.14 1017.48 1017.92 1018.04 1018.22 1018.15 1018.45 1018.53 1018.83 1019.19 1019.37 1019.13 1018.90 1018.71 1018.56 1018.16 1017.79 1017.41
1004.73 1004.94 1005.35 1005.68 1005.58 1005.11 1005.04 1005.13 1004.78 1005.15 1005.90 1006.50 1006.94 1007.67 1009.05 1010.98 1012.79 1013.35 1013.63 1014.05 1014.84 1015.65 1016.17 1017.00 1017.68 1018.32 1018.75 1019.14 1018.92 1019.22 1019.23 1019.09 1019.06 1019.33 1019.68 1019.71 1019.60 1019.28 1019.03 1018.90 1018.44 1018.07 1017.64 1017.23
1005.10 1004.98 1005.83 1005.88 1005.71 1005.87 1005.30 1005.36 1005.16 1005.11 1006.58 1007.37 1007.98 1009.22 1010.68 1011.90 1012.80 1014.88 1015.53 1015.96 1016.51 1017.23 1017.84 1018.60 1019.28 1019.81 1019.89 1020.15 1020.31 1020.01 1020.12 1019.71 1019.77 1019.99 1020.06 1020.02 1019.93 1019.73 1019.30 1018.72 1018.22 1017.95 1017.51 1017.08
1005.56 1005.29 1005.33 1006.17 1005.73 1005.43 1004.67 1005.02 1005.35 1005.61 1006.35 1007.56 1008.48 1009.56 1010.52 1011.53 1012.91 1015.91 1016.97 1017.40 1017.98 1018.40 1018.74 1019.31 1020.10 1020.60 1020.78 1021.05 1021.21 1020.77 1020.29 1020.27 1020.48 1020.61 1020.38 1020.52 1020.48 1019.93 1019.11 1018.75 1018.36 1018.00 1017.68 1017.21
1005.73 1005.87 1005.59 1005.94 1005.98 1005.82 1005.52 1005.76 1006.00 1006.34 1007.06 1007.71 1008.78 1009.97 1011.21 1012.15 1013.30 1016.21 1017.55 1018.46 1019.04 1019.52 1019.89 1020.35 1020.86 1021.26 1021.61 1021.71 1021.40 1020.89 1020.81 1020.84 1021.16 1021.26 1021.22 1020.89 1020.30 1019.74 1019.45 1018.99 1018.48 1018.04 1017.62 1017.33
1005.25 1005.78 1006.18 1006.78 1006.78 1006.75 1006.52 1006.67 1006.64 1007.24 1007.82 1008.60 1009.85 1011.20 1012.65 1013.84 1015.56 1017.02 1018.07 1018.90 1019.57 1020.14 1020.71 1021.13 1021.38 1021.77 1021.92 1021.71 1021.27 1021.16 1021.46 1022.04 1022.14 1021.81 1021.30 1020.76 1020.45 1020.12 1019.51 1019.02 1018.47 1017.88 1017.56 1016.93
1005.88 1005.54 1005.85 1007.12 1007.47 1007.83 1007.77 1007.65 1007.59 1007.90 1008.57 1009.98 1010.91 1012.31 1013.10 1014.80 1016.54 1017.83 1018.87 1019.84 1020.68 1021.14 1021.45 1021.63 1021.43 1021.52 1021.92 1022.08 1022.25 1022.25 1022.47 1022.49 1022.33 1021.83 1021.28 1020.87 1020.39 1019.76 1019.33 1018.76 1018.33 1017.91 1017.48 1016.98
1006.03 1006.25 1006.50 1007.52 1008.62 1008.84 1008.96 1008.90 1008.90 1009.28 1010.04 1011.24 1012.36 1013.55 1014.47 1015.37 1017.28 1018.57 1019.54 1020.33 1020.92 1021.38 1021.56 1021.72 1021.78 1022.01 1022.43 1022.76 1022.83 1022.89 1022.82 1022.71 1022.32 1021.79 1021.20 1020.67 1020.17 1019.76 1019.26 1018.84 1018.44 1018.14 1017.72 1017.23
1006.15 1006.42 1007.28 1008.59 1009.42 1009.74 1010.35 1010.26 1010.46 1011.03 1011.81 1012.80 1013.95 1014.83 1015.75 1016.66 1018.01 1019.09 1020.02 1020.74 1021.21 1021.53 1021.89 1022.25 1022.56 1023.00 1023.25 1023.37 1023.36 1023.38 1023.26 1022.95 1022.37 1021.81 1021.38 1020.90 1020.34 1019.79 1019.38 1019.08 1018.74 1018.34 1017.89 1017.59
1006.65 1006.44 1006.54 1007.25 1008.60 1009.06 1010.86 1011.65 1011.81 1012.08 1013.11 1014.05 1014.85 1016.19 1017.30 1017.92 1018.77 1019.77 1020.59 1021.35 1021.81 1022.22 1022.50 1022.73 1023.35 1023.61 1023.84 1023.84 1023.79 1023.68 1023.48 1023.13 1022.65 1021.98 1021.41 1020.92 1020.44 1019.95 1019.49 1019.13 1018.67 1018.24 1017.96 1017.53
Wind_Speed
12 10 20 26 21 10 18 18 10 13 6 12 13 11 6 11 8 10 8 6 7 7 4 1 3 5 6 6 6 5 6 6 4 3 2 2 2 2 4 5 6 6 6 7
10 15 14 12 13 9 14 19 14 11 10 11 10 14 5 9 12 12 12 10 10 8 7 3 3 4 5 4 5 5 4 5 4 3 3 2 2 2 5 4 6 6 5 6
15 11 10 14 12 11 10 18 21 12 9 3 10 9 8 7 7 8 9 7 7 10 8 6 6 5 5 6 7 6 6 5 5 6 4 3 5 5 5 6 6 8 10 11
8 9 19 15 13 10 9 9 17 19 12 11 8 12 9 11 12 11 12 9 10 9 8 7 7 5 5 5 6 6 6 6 5 7 7 9 8 7 6 6 7 8 14 13
6 16 20 21 21 11 5 6 13 16 15 9 10 9 13 6 17 17 13 13 13 12 12 11 8 3 6 7 8 9 11 10 10 11 12 11 13 10 7 7 10 11 10 10
5 10 14 12 16 16 6 6 8 6 6 12 13 14 13 15 13 10 11 12 12 14 13 9 3 6 9 11 12 12 13 12 12 13 14 15 15 11 8 8 7 6 6 6
5 10 7 10 20 17 14 14 7 8 8 6 8 9 9 8 9 11 12 7 9 14 14 12 12 11 12 14 14 13 15 14 13 14 14 13 13 11 10 7 6 6 5 5
8 7 13 15 20 12 17 17 6 7 9 9 5 10 7 9 3 3 7 8 8 12 15 17 16 13 15 16 16 15 15 15 13 13 12 10 11 7 7 6 5 4 4 4
6 5 15 19 13 15 19 13 5 5 2 7 6 3 4 4 7 5 6 7 11 14 16 17 16 16 16 16 16 16 15 14 12 12 10 9 8 8 7 6 4 3 3 3
5 9 13 17 14 5 15 15 9 2 8 6 6 4 6 12 11 7 6 6 7 11 14 16 16 16 13 14 12 12 11 11 10 8 6 6 6 6 6 4 4 4 3 4
2 3 10 13 10 13 13 13 5 3 2 7 4 3 5 7 3 5 8 8 5 11 14 15 15 14 13 12 11 10 9 9 7 6 5 5 4 5 4 5 5 6 6 6
1 5 12 17 2 15 12 15 9 9 8 0 2 2 2 4 2 5 9 7 4 10 15 16 16 15 13 13 11 10 7 7 6 5 4 4 4 4 4 5 6 6 6 6
7 3 11 10 7 6 13 8 8 7 3 8 5 2 3 3 1 4 6 2 7 11 14 16 16 14 13 12 9 9 7 6 6 4 4 4 5 5 5 6 6 6 7 7
7 3 4 7 8 8 9 12 13 13 5 6 8 6 7 7 3 2 1 4 8 12 14 13 13 12 10 9 8 8 7 6 6 5 6 6 6 6 6 6 6 7 8 9
1 4 4 5 3 3 7 17 18 17 14 9 11 10 7 8 5 4 7 10 12 13 14 13 12 11 10 10 10 9 8 8 7 7 7 6 6 6 6 7 7 8 9 10
0 4 2 5 4 4 4 9 11 10 8 6 4 4 5 12 10 10 12 15 14 14 14 16 15 14 13 10 9 9 9 9 7 7 7 6 6 7 8 8 10 10 11 13
4 6 3 5 1 7 6 8 10 6 5 5 7 7 16 14 14 11 11 17 15 15 15 15 14 12 12 11 9 10 8 8 7 7 7 7 8 9 10 11 12 12 13 13
8 5 2 5 4 6 4 1 6 5 5 3 8 15 15 16 14 14 12 14 16 15 16 14 12 12 11 9 10 8 8 7 7 7 7 8 10 12 12 12 12 12 12 12
1 6 5 5 3 2 1 5 7 6 4 4 11 17 19 18 17 13 12 13 14 15 14 12 10 10 9 10 8 7 6 7 7 8 10 10 11 12 12 12 12 12 11 12
5 5 4 5 5 7 5 7 3 3 4 11 15 19 23 17 9 6 8 12 14 13 12 11 10 8 9 9 7 6 8 8 9 10 11 11 11 11 12 12 12 10 10 11
5 3 6 5 3 2 2 6 5 7 0 15 19 20 15 7 7 17 13 12 11 10 11 9 8 8 8 7 7 9 9 11 11 11 11 10 10 11 10 10 10 10 10 10
7 7 4 3 3 5 3 5 7 6 14 16 16 14 18 21 20 16 14 12 10 10 9 7 7 7 7 9 10 10 10 10 9 10 10 10 10 9 8 10 9 10 10 10
4 2 6 2 3 4 3 4 1 9 17 13 17 17 24 21 18 15 13 11 9 8 7 7 8 10 10 11 10 9 10 11 10 10 10 10 10 9 9 9 10 9 9 8
3 2 4 7 5 6 6 9 12 14 17 15 18 19 18 22 16 14 11 9 8 8 9 8 9 10 10 10 10 10 10 10 10 11 11 10 10 10 9 8 7 7 8 8
1 7 8 6 7 12 9 10 16 20 21 21 18 17 17 18 14 13 11 9 9 9 8 8 9 8 9 9 9 10 10 10 10 10 9 9 8 9 9 8 7 8 8 8
1 6 5 6 12 8 12 12 18 21 19 19 20 17 13 14 15 12 11 9 8 8 7 8 8 7 7 8 8 9 9 9 9 8 7 7 7 7 7 7 7 6 8 12
Wind_Direction
180 185 188 191 196 205 202 196 188 198 184 183 193 186 206 169 177 181 195 191 219 235 253 264 157 193 209 197 193 180 169 165 165 157 191 186 180 29 333 332 331 310 288 270
159 201 185 155 179 162 179 191 194 179 160 189 175 185 205 194 191 193 190 194 212 224 228 210 184 177 175 144 144 137 147 155 176 177 183 197 172 48 57 43 32 24 31 31
180 177 163 177 178 144 183 194 192 165 161 100 153 189 200 222 244 213 204 223 227 224 211 223 199 198 162 154 143 147 156 166 185 195 170 175 127 87 77 64 60 54 63 62
173 159 172 177 184 173 141 189 180 193 178 190 217 206 213 193 204 226 220 222 229 243 244 241 234 193 162 148 146 140 133 135 133 143 118 108 105 108 92 92 83 76 57 55
134 164 184 184 189 184 141 170 158 183 197 193 189 228 193 204 221 214 217 218 221 225 228 229 228 168 110 125 126 121 117 110 110 112 116 111 110 118 111 91 69 61 60 58
99 174 165 177 173 182 172 128 88 109 149 201 201 222 209 211 213 213 225 221 215 223 220 216 190 141 119 119 118 119 113 110 116 112 110 111 112 112 105 93 86 74 65 57
155 153 164 170 163 178 187 178 152 177 194 194 178 200 237 201 205 225 223 227 215 213 209 196 177 168 144 133 127 124 122 117 117 115 116 119 117 111 107 99 82 75 64 52
162 162 164 173 168 177 180 184 180 178 181 163 160 220 207 224 177 233 255 253 233 210 200 193 181 167 152 142 139 136 133 130 131 126 124 124 124 115 109 96 90 81 68 52
149 131 177 169 168 160 186 199 141 106 86 172 185 183 228 210 220 228 224 225 222 210 201 190 176 166 157 150 149 145 139 138 138 135 139 135 128 133 126 117 110 92 57 34
170 126 183 157 166 160 180 181 193 198 173 176 169 232 236 198 211 243 264 252 217 207 194 180 172 162 156 148 140 138 137 138 134 131 123 121 115 102 105 111 85 61 42 7
127 151 149 160 188 173 156 173 187 176 285 191 197 197 214 194 173 272 295 304 240 194 184 170 162 151 143 138 136 130 140 133 123 111 99 102 101 92 80 62 31 13 5 2
275 123 160 172 123 179 173 181 172 188 190 283 359 242 142 158 279 287 291 298 228 185 170 160 149 146 149 147 144 138 125 132 123 120 104 99 82 69 59 51 29 16 16 7
185 136 143 146 147 155 196 179 172 124 137 208 205 218 142 167 245 309 301 245 169 161 160 153 150 144 147 141 143 135 133 130 118 113 115 85 55 34 30 41 33 18 1 349
135 111 133 156 152 148 177 183 192 190 183 170 228 231 198 195 168 29 2 163 160 158 153 132 133 129 128 127 123 112 109 106 98 94 77 55 42 36 34 34 19 355 340 327
202 117 85 48 113 163 161 183 186 195 214 201 250 219 212 166 114 82 117 136 137 130 130 127 119 113 107 97 95 95 85 76 78 78 68 52 38 20 5 1 347 334 321 317
115 106 110 69 104 142 121 161 180 190 199 236 257 152 138 121 107 101 107 108 105 102 97 91 87 81 78 79 80 81 72 64 63 67 57 29 2 345 342 340 329 319 313 310
150 139 126 134 132 145 122 173 172 152 170 202 180 137 140 119 96 85 104 105 102 96 90 83 77 80 71 65 61 60 59 59 50 40 22 359 339 328 329 326 316 315 313 312
146 116 54 115 170 185 61 305 177 129 106 146 118 140 126 106 86 64 80 97 104 104 95 84 82 75 67 56 59 52 39 41 29 12 345 336 332 325 321 315 315 319 318 316
4 128 106 153 188 69 289 178 167 188 148 141 130 127 126 126 98 54 55 75 89 89 87 86 74 75 62 49 27 36 24 24 10 353 339 334 331 316 316 318 325 322 319 322
84 81 132 172 177 196 192 169 166 182 232 161 152 147 146 159 139 125 105 98 92 86 82 83 78 68 52 36 13 14 20 11 1 345 337 329 317 317 324 326 319 318 313 304
132 84 181 154 150 221 263 142 170 192 96 156 154 152 148 136 99 127 119 101 93 90 83 83 77 64 43 22 12 24 15 11 351 334 322 320 328 329 319 317 317 316 314 310
162 154 166 129 140 202 113 146 199 101 126 136 140 131 112 115 119 124 118 107 94 85 79 73 80 68 44 29 22 20 14 352 336 333 332 338 333 321 320 323 316 321 316 308
197 232 156 232 80 358 340 313 23 146 134 127 122 129 128 124 124 123 116 107 94 85 75 61 53 48 37 28 22 10 2 354 345 338 335 328 327 328 322 323 323 318 318 311
136 154 92 168 53 62 83 93 101 120 113 116 120 128 125 123 124 118 113 105 93 72 61 51 49 46 38 26 21 11 355 345 334 335 337 335 334 331 329 326 320 319 313 317
59 141 127 91 117 103 72 102 117 110 111 112 111 115 116 118 116 119 112 98 83 75 66 53 48 45 36 21 15 4 355 342 337 334 335 330 329 335 331 322 317 311 310 319
258 154 185 154 155 95 120 123 124 112 112 111 114 109 104 110 112 109 99 88 80 73 67 67 61 45 27 16 8 360 350 346 338 335 340 337 331 335 333 334 324 308 296 308